Ocala, FL

11:12 PM EDT on July 24, 2017 (GMT -0400)
Ocala Regional-Taylor

Weather History for KOCF - August, 2014

Change the Weather History Date:

Sunday, August 24, 2014

  Actual Average Record
Temperature  
Mean Temperature 84 °F -  
Max Temperature 96 °F 88 °F 96 °F (2014)
Min Temperature 73 °F 69 °F 64 °F (2007)
Cooling Degree Days 20    
Growing Degree Days 34 (Base 50)    
Moisture  
Dew Point 73 °F    
Average Humidity 84    
Maximum Humidity 94    
Minimum Humidity 44    
Precipitation  
Precipitation 0.00 in - - ()
Sea Level Pressure  
Sea Level Pressure 29.86 in    
Wind  
Wind Speed 3 mph (North)    
Max Wind Speed 9 mph    
Max Gust Speed -    
Visibility 10 miles    
Events      
Averages and records for this station are not official NWS values.
T = Trace of Precipitation, MM = Missing Value Source: NWS Daily Summary

Daily Weather History Graph

Daily Weather History Graph

Search for Another Location

Airport or City:

Trip Planner

Search our weather history database for the weather conditions in past years. The results will help you decide how hot, cold, wet, or windy it might be!

Date:

Astronomy

Aug. 24, 2014 Rise Set
Actual Time 7:02 AM EDT 7:59 PM EDT
Civil Twilight 6:37 AM EDT 8:24 PM EDT
Nautical Twilight 6:08 AM EDT 8:52 PM EDT
Astronomical Twilight 5:39 AM EDT 9:22 PM EDT
Moon 6:11 AM EDT (8/24) 7:19 PM EDT (8/24)
Length of Visible Light 13h 46m
Length of Day
12h 57m
Waning Crescent, 1% of the Moon is Illuminated
Aug 24
Waning Crescent
Aug 25
New
Sep 2
First Quarter
Sep 8
Full
Sep 15
Last Quarter

Hourly Weather History & Observations

Time (EDT) Temp. Heat Index Dew Point Humidity Pressure Visibility Wind Dir Wind Speed Gust Speed Precip Events Conditions
12:15 AM 75.2 °F - 71.6 °F 89% 29.92 in 10.0 mi Calm Calm - N/A   Scattered Clouds
12:35 AM 77.0 °F - 73.4 °F 89% 29.90 in 10.0 mi Calm Calm - N/A   Mostly Cloudy
12:55 AM 77.0 °F - 73.4 °F 89% 29.91 in 10.0 mi NW 4.6 mph - N/A   Mostly Cloudy
1:15 AM 75.2 °F - 73.4 °F 94% 29.90 in 10.0 mi WNW 5.8 mph - N/A   Scattered Clouds
1:35 AM 75.2 °F - 73.4 °F 94% 29.90 in 10.0 mi Calm Calm - N/A   Clear
1:55 AM 75.2 °F - 73.4 °F 94% 29.89 in 10.0 mi WSW 4.6 mph - N/A   Clear
2:15 AM 75.2 °F - 71.6 °F 89% 29.89 in 10.0 mi SSW 4.6 mph - N/A   Clear
2:35 AM 75.2 °F - 71.6 °F 89% 29.89 in 10.0 mi WSW 3.5 mph - N/A   Clear
2:55 AM 75.2 °F - 71.6 °F 89% 29.87 in 10.0 mi South 3.5 mph - N/A   Clear
3:15 AM 73.4 °F - 71.6 °F 94% 29.86 in 10.0 mi South 5.8 mph - N/A   Clear
3:35 AM 73.4 °F - 71.6 °F 94% 29.85 in 10.0 mi Calm Calm - N/A   Clear
3:55 AM 73.4 °F - 71.6 °F 94% 29.85 in 10.0 mi Calm Calm - N/A   Clear
4:15 AM 73.4 °F - 71.6 °F 94% 29.84 in 10.0 mi Calm Calm - N/A   Clear
4:35 AM 73.4 °F - 71.6 °F 94% 29.85 in 10.0 mi Calm Calm - N/A   Clear
4:55 AM 73.4 °F - 71.6 °F 94% 29.85 in 10.0 mi SSW 5.8 mph - N/A   Clear
5:15 AM 73.4 °F - 71.6 °F 94% 29.85 in 10.0 mi SW 4.6 mph - N/A   Partly Cloudy
5:35 AM 73.4 °F - 71.6 °F 94% 29.85 in 10.0 mi SW 3.5 mph - N/A   Scattered Clouds
5:55 AM 73.4 °F - 71.6 °F 94% 29.85 in 10.0 mi West 3.5 mph - N/A   Partly Cloudy
6:15 AM 73.4 °F - 69.8 °F 88% 29.85 in 10.0 mi Calm Calm - N/A   Clear
6:35 AM 73.4 °F - 69.8 °F 88% 29.85 in 10.0 mi South 3.5 mph - N/A   Clear
6:50 AM 73.4 °F - 69.8 °F 88% 29.85 in 10.0 mi Calm Calm - N/A   Clear
8:50 AM 80.6 °F 85.4 °F 73.4 °F 79% 29.86 in 10.0 mi NW 5.8 mph - N/A   Clear
9:50 AM 82.4 °F 89.5 °F 75.2 °F 79% 29.87 in 10.0 mi NW 6.9 mph - N/A   Clear
10:50 AM 87.8 °F 99.7 °F 77.0 °F 70% 29.88 in 10.0 mi NNW 8.1 mph - N/A   Clear
11:50 AM 89.6 °F 99.8 °F 75.2 °F 62% 29.87 in 10.0 mi NNW 5.8 mph - N/A   Partly Cloudy
12:50 PM 93.2 °F 105.0 °F 75.2 °F 56% 29.86 in 10.0 mi NNE 5.8 mph - N/A   Partly Cloudy
1:50 PM 93.2 °F 102.4 °F 73.4 °F 52% 29.83 in 10.0 mi NNE 5.8 mph - N/A   Partly Cloudy
2:50 PM 96.8 °F 105.1 °F 71.6 °F 44% 29.81 in 10.0 mi North 8.1 mph - N/A   Partly Cloudy
3:50 PM 93.2 °F 100.5 °F 71.6 °F 49% 29.80 in 10.0 mi NNE 9.2 mph - N/A   Scattered Clouds
5:50 PM 77.0 °F - 71.6 °F 83% 29.82 in 10.0 mi NNE 4.6 mph - N/A   Partly Cloudy
6:50 PM 78.8 °F - 73.4 °F 83% 29.84 in 10.0 mi NNE 4.6 mph - N/A   Partly Cloudy
7:55 PM 78.8 °F - 75.2 °F 89% 29.84 in 10.0 mi ENE 5.8 mph - N/A   Clear
8:15 PM 78.8 °F - 75.2 °F 89% 29.84 in 10.0 mi ENE 3.5 mph - N/A   Clear
8:35 PM 78.8 °F - 75.2 °F 89% 29.84 in 10.0 mi NE 4.6 mph - N/A   Clear
8:55 PM 80.6 °F 86.2 °F 75.2 °F 84% 29.84 in 10.0 mi NE 5.8 mph - N/A   Clear
9:15 PM 78.8 °F - 75.2 °F 89% 29.85 in 10.0 mi NNE 3.5 mph - N/A   Clear
9:35 PM 78.8 °F - 75.2 °F 89% 29.86 in 10.0 mi NE 5.8 mph - N/A   Clear
9:55 PM 78.8 °F - 75.2 °F 89% 29.86 in 10.0 mi NNE 4.6 mph - N/A   Clear
10:15 PM 78.8 °F - 73.4 °F 83% 29.87 in 10.0 mi NE 4.6 mph - N/A   Clear
10:35 PM 78.8 °F - 73.4 °F 83% 29.87 in 10.0 mi NE 5.8 mph - N/A   Clear
10:55 PM 78.8 °F - 73.4 °F 83% 29.87 in 10.0 mi NNE 5.8 mph - N/A   Clear
11:15 PM 78.8 °F - 73.4 °F 83% 29.87 in 10.0 mi NNE 5.8 mph - N/A   Clear
11:35 PM 78.8 °F - 73.4 °F 83% 29.87 in 10.0 mi NE 4.6 mph - N/A   Clear
11:55 PM 78.8 °F - 73.4 °F 83% 29.88 in 10.0 mi NNE 4.6 mph - N/A   Clear